"Time","Value","Approval","myLocation"
"2023-05-07 00:00",19.8205065047185,"Approved","OW416"
"2023-05-07 01:00",19.8285085726208,"Approved","OW416"
"2023-05-07 02:00",19.8245106405231,"Approved","OW416"
"2023-05-07 03:00",19.8245127084255,"Approved","OW416"
"2023-05-07 04:00",19.8395147763278,"Approved","OW416"
"2023-05-07 05:00",19.8235168442301,"Approved","OW416"
"2023-05-07 06:00",19.8205189121324,"Approved","OW416"
"2023-05-07 07:00",19.8175209800348,"Approved","OW416"
"2023-05-07 08:00",19.8165230479371,"Approved","OW416"
"2023-05-07 09:00",19.8135251158394,"Approved","OW416"
"2023-05-07 10:00",19.8125271837417,"Approved","OW416"
"2023-05-07 11:00",19.8115292516441,"Approved","OW416"
"2023-05-07 12:00",19.8095313195464,"Approved","OW416"
"2023-05-07 13:00",19.8095333874487,"Approved","OW416"
"2023-05-07 14:00",19.8135354553511,"Approved","OW416"
"2023-05-07 15:00",19.8145375232534,"Approved","OW416"
"2023-05-07 16:00",19.8205395911557,"Approved","OW416"
"2023-05-07 17:00",19.824541659058,"Approved","OW416"
"2023-05-07 18:00",19.8385437269604,"Approved","OW416"
"2023-05-07 19:00",19.8275457948627,"Approved","OW416"
"2023-05-07 20:00",19.827547862765,"Approved","OW416"
"2023-05-07 21:00",19.8225499306673,"Approved","OW416"
"2023-05-07 22:00",19.8425519985697,"Approved","OW416"
"2023-05-07 23:00",19.825554066472,"Approved","OW416"
"2023-05-08 00:00",19.8275561343743,"Approved","OW416"
"2023-05-08 01:00",19.8225582022767,"Approved","OW416"
"2023-05-08 02:00",19.825560270179,"Approved","OW416"
"2023-05-08 03:00",19.8355623380813,"Approved","OW416"
"2023-05-08 04:00",19.8515644059836,"Approved","OW416"
"2023-05-08 05:00",19.828566473886,"Approved","OW416"
"2023-05-08 06:00",19.8275685417883,"Approved","OW416"
"2023-05-08 07:00",19.8225706096906,"Approved","OW416"
"2023-05-08 08:00",19.8205726775929,"Approved","OW416"
"2023-05-08 09:00",19.8205747454953,"Approved","OW416"
"2023-05-08 10:00",19.8175768133976,"Approved","OW416"
"2023-05-08 11:00",19.8155788812999,"Approved","OW416"
"2023-05-08 12:00",19.8165809492023,"Approved","OW416"
"2023-05-08 13:00",19.8165830171046,"Approved","OW416"
"2023-05-08 14:00",19.8165850850069,"Approved","OW416"
"2023-05-08 15:00",19.8185871529092,"Approved","OW416"
"2023-05-08 16:00",19.8215892208116,"Approved","OW416"
"2023-05-08 17:00",19.8225912887139,"Approved","OW416"
"2023-05-08 18:00",19.8235933566162,"Approved","OW416"
"2023-05-08 19:00",19.8285954245186,"Approved","OW416"
"2023-05-08 20:00",19.8315974924209,"Approved","OW416"
"2023-05-08 21:00",19.8365995603232,"Approved","OW416"
"2023-05-08 22:00",19.8416016282255,"Approved","OW416"
"2023-05-08 23:00",19.8526036961279,"Approved","OW416"
"2023-05-09 00:00",19.8326057640302,"Approved","OW416"
"2023-05-09 01:00",19.8346078319325,"Approved","OW416"
"2023-05-09 02:00",19.8316098998348,"Approved","OW416"
"2023-05-09 03:00",19.8286119677372,"Approved","OW416"
"2023-05-09 04:00",19.8326140356395,"Approved","OW416"
"2023-05-09 05:00",19.8306161035418,"Approved","OW416"
"2023-05-09 06:00",19.8266181714441,"Approved","OW416"
"2023-05-09 07:00",19.8236202393465,"Approved","OW416"
"2023-05-09 08:00",19.8266223072488,"Approved","OW416"
"2023-05-09 09:00",19.8206243751511,"Approved","OW416"
"2023-05-09 10:00",19.8196264430535,"Approved","OW416"
"2023-05-09 11:00",19.8186285109558,"Approved","OW416"
"2023-05-09 12:00",19.8176305788581,"Approved","OW416"
"2023-05-09 13:00",19.8196326467604,"Approved","OW416"
"2023-05-09 14:00",19.8196347146628,"Approved","OW416"
"2023-05-09 15:00",19.8246367825651,"Approved","OW416"
"2023-05-09 16:00",19.8226388504674,"Approved","OW416"
"2023-05-09 17:00",19.8306409183698,"Approved","OW416"
"2023-05-09 18:00",19.8356429862721,"Approved","OW416"
"2023-05-09 19:00",19.8406450541744,"Approved","OW416"
"2023-05-09 20:00",19.8406471220767,"Approved","OW416"
"2023-05-09 21:00",19.8446491899791,"Approved","OW416"
"2023-05-09 22:00",19.8366512578814,"Approved","OW416"
"2023-05-09 23:00",19.8446533257837,"Approved","OW416"
"2023-05-10 00:00",19.841655393686,"Approved","OW416"
"2023-05-10 01:00",19.8376574615884,"Approved","OW416"
"2023-05-10 02:00",19.8336595294907,"Approved","OW416"
"2023-05-10 03:00",19.836661597393,"Approved","OW416"
"2023-05-10 04:00",19.8366636652954,"Approved","OW416"
"2023-05-10 05:00",19.8326657331977,"Approved","OW416"
"2023-05-10 06:00",19.8286678011,"Approved","OW416"
"2023-05-10 07:00",19.8256698690023,"Approved","OW416"
"2023-05-10 08:00",19.8236719369047,"Approved","OW416"
"2023-05-10 09:00",19.821674004807,"Approved","OW416"
"2023-05-10 10:00",19.8206760727093,"Approved","OW416"
"2023-05-10 11:00",19.8186781406116,"Approved","OW416"
"2023-05-10 12:00",19.817680208514,"Approved","OW416"
"2023-05-10 13:00",19.8176822764163,"Approved","OW416"
"2023-05-10 14:00",19.8176843443186,"Approved","OW416"
"2023-05-10 15:00",19.821686412221,"Approved","OW416"
"2023-05-10 16:00",19.8236884801233,"Approved","OW416"
"2023-05-10 17:00",19.8396905480256,"Approved","OW416"
"2023-05-10 18:00",19.8336926159279,"Approved","OW416"
"2023-05-10 19:00",19.8376946838303,"Approved","OW416"
"2023-05-10 20:00",19.8356967517326,"Approved","OW416"
"2023-05-10 21:00",19.9306988196349,"Approved","OW416"
"2023-05-10 22:00",19.9577008875372,"Approved","OW416"
"2023-05-10 23:00",19.9067029554396,"Approved","OW416"
"2023-05-11 00:00",19.8967050233419,"Approved","OW416"
"2023-05-11 01:00",19.9147070912442,"Approved","OW416"
"2023-05-11 02:00",19.9017091591466,"Approved","OW416"
"2023-05-11 03:00",19.8907112270489,"Approved","OW416"
"2023-05-11 04:00",19.8927132949512,"Approved","OW416"
"2023-05-11 05:00",19.8847153628535,"Approved","OW416"
"2023-05-11 06:00",19.8757174307559,"Approved","OW416"
"2023-05-11 07:00",19.8697194986582,"Approved","OW416"
"2023-05-11 08:00",19.8667215665605,"Approved","OW416"
"2023-05-11 09:00",19.8627236344629,"Approved","OW416"
"2023-05-11 10:00",19.8587257023652,"Approved","OW416"
"2023-05-11 11:00",19.8567277702675,"Approved","OW416"
"2023-05-11 12:00",19.8567298381698,"Approved","OW416"
"2023-05-11 13:00",19.8547319060722,"Approved","OW416"
"2023-05-11 14:00",19.8547339739745,"Approved","OW416"
"2023-05-11 15:00",19.8557360418768,"Approved","OW416"
"2023-05-11 16:00",19.8567381097791,"Approved","OW416"
"2023-05-11 17:00",19.8587401776815,"Approved","OW416"
"2023-05-11 18:00",19.8597422455838,"Approved","OW416"
"2023-05-11 19:00",19.8617443134861,"Approved","OW416"
"2023-05-11 20:00",19.8667463813885,"Approved","OW416"
"2023-05-11 21:00",19.8717484492908,"Approved","OW416"
"2023-05-11 22:00",19.8587505171931,"Approved","OW416"
"2023-05-11 23:00",19.8657525850954,"Approved","OW416"
"2023-05-12 00:00",19.8697546529978,"Approved","OW416"
"2023-05-12 01:00",19.8617567209001,"Approved","OW416"
"2023-05-12 02:00",19.8647587888024,"Approved","OW416"
"2023-05-12 03:00",19.8687608567047,"Approved","OW416"
"2023-05-12 04:00",19.8577629246071,"Approved","OW416"
"2023-05-12 05:00",19.8567649925094,"Approved","OW416"
"2023-05-12 06:00",19.8537670604117,"Approved","OW416"
"2023-05-12 07:00",19.8497691283141,"Approved","OW416"
"2023-05-12 08:00",19.8477711962164,"Approved","OW416"
"2023-05-12 09:00",19.8457732641187,"Approved","OW416"
"2023-05-12 10:00",19.843775332021,"Approved","OW416"
"2023-05-12 11:00",19.8427773999234,"Approved","OW416"
"2023-05-12 12:00",19.8417794678257,"Approved","OW416"
"2023-05-12 13:00",19.841781535728,"Approved","OW416"
"2023-05-12 14:00",19.8437836036303,"Approved","OW416"
"2023-05-12 15:00",19.8437856715327,"Approved","OW416"
"2023-05-12 16:00",19.847787739435,"Approved","OW416"
"2023-05-12 17:00",19.8617898073373,"Approved","OW416"
"2023-05-12 18:00",19.8517918752397,"Approved","OW416"
"2023-05-12 19:00",19.872793943142,"Approved","OW416"
"2023-05-12 20:00",19.8587960110443,"Approved","OW416"
"2023-05-12 21:00",19.8617980789466,"Approved","OW416"
"2023-05-12 22:00",19.857800146849,"Approved","OW416"
"2023-05-12 23:00",19.8558022147513,"Approved","OW416"
"2023-05-13 00:00",19.8638042826536,"Approved","OW416"
"2023-05-13 01:00",19.8588063505559,"Approved","OW416"
"2023-05-13 02:00",19.8578084184583,"Approved","OW416"
"2023-05-13 03:00",19.8628104863606,"Approved","OW416"
"2023-05-13 04:00",19.8638125542629,"Approved","OW416"
"2023-05-13 05:00",19.8638146221653,"Approved","OW416"
"2023-05-13 06:00",19.8638166900676,"Approved","OW416"
"2023-05-13 07:00",19.8718187579699,"Approved","OW416"
"2023-05-13 08:00",19.8578208258722,"Approved","OW416"
"2023-05-13 09:00",19.8558228937746,"Approved","OW416"
"2023-05-13 10:00",19.8618249616769,"Approved","OW416"
"2023-05-13 11:00",19.8538270295792,"Approved","OW416"
"2023-05-13 12:00",19.8558290974815,"Approved","OW416"
"2023-05-13 13:00",19.8558311653839,"Approved","OW416"
"2023-05-13 14:00",19.8578332332862,"Approved","OW416"
"2023-05-13 15:00",19.8628353011885,"Approved","OW416"
"2023-05-13 16:00",19.8598373690909,"Approved","OW416"
"2023-05-13 17:00",19.8658394369932,"Approved","OW416"
"2023-05-13 18:00",19.8678415048955,"Approved","OW416"
"2023-05-13 19:00",19.8708435727978,"Approved","OW416"
"2023-05-13 20:00",19.8738456407002,"Approved","OW416"
"2023-05-13 21:00",19.8738477086025,"Approved","OW416"
"2023-05-13 22:00",19.8728497765048,"Approved","OW416"
"2023-05-13 23:00",19.8748518444072,"Approved","OW416"
"2023-05-14 00:00",19.8708539123095,"Approved","OW416"
"2023-05-14 01:00",19.8718559802118,"Approved","OW416"
"2023-05-14 02:00",19.8728580481141,"Approved","OW416"
"2023-05-14 03:00",19.8778601160165,"Approved","OW416"
"2023-05-14 04:00",19.8758621839188,"Approved","OW416"
"2023-05-14 05:00",19.8748642518211,"Approved","OW416"
"2023-05-14 06:00",19.8708663197234,"Approved","OW416"
"2023-05-14 07:00",19.8738683876258,"Approved","OW416"
"2023-05-14 08:00",19.8698704555281,"Approved","OW416"
"2023-05-14 09:00",19.8658725234304,"Approved","OW416"
"2023-05-14 10:00",19.8658745913328,"Approved","OW416"
"2023-05-14 11:00",19.8748766592351,"Approved","OW416"
"2023-05-14 12:00",19.8628787271374,"Approved","OW416"
"2023-05-14 13:00",19.8658807950397,"Approved","OW416"
"2023-05-14 14:00",19.8648828629421,"Approved","OW416"
"2023-05-14 15:00",19.8708849308444,"Approved","OW416"
"2023-05-14 16:00",19.8688869987467,"Approved","OW416"
"2023-05-14 17:00",19.872889066649,"Approved","OW416"
"2023-05-14 18:00",19.8798911345514,"Approved","OW416"
"2023-05-14 19:00",19.8758932024537,"Approved","OW416"
"2023-05-14 20:00",19.870895270356,"Approved","OW416"
"2023-05-14 21:00",19.9048973382584,"Approved","OW416"
"2023-05-14 22:00",19.8948994061607,"Approved","OW416"
"2023-05-14 23:00",19.887901474063,"Approved","OW416"
"2023-05-15 00:00",19.8839035419653,"Approved","OW416"
"2023-05-15 01:00",19.8799056098677,"Approved","OW416"
"2023-05-15 02:00",19.88490767777,"Approved","OW416"
"2023-05-15 03:00",19.8829097456723,"Approved","OW416"
"2023-05-15 04:00",19.9299118135747,"Approved","OW416"
"2023-05-15 05:00",19.895913881477,"Approved","OW416"
"2023-05-15 06:00",19.8869159493793,"Approved","OW416"
"2023-05-15 07:00",19.8829180172816,"Approved","OW416"
"2023-05-15 08:00",19.877920085184,"Approved","OW416"
"2023-05-15 09:00",19.8739221530863,"Approved","OW416"
"2023-05-15 10:00",19.8709242209886,"Approved","OW416"
"2023-05-15 11:00",19.8689262888909,"Approved","OW416"
"2023-05-15 12:00",19.8679283567933,"Approved","OW416"
"2023-05-15 13:00",19.8749304246956,"Approved","OW416"
"2023-05-15 14:00",19.8719324925979,"Approved","OW416"
"2023-05-15 15:00",19.8689345605003,"Approved","OW416"
"2023-05-15 16:00",19.8679366284026,"Approved","OW416"
"2023-05-15 17:00",19.8749386963049,"Approved","OW416"
"2023-05-15 18:00",19.8739407642072,"Approved","OW416"
"2023-05-15 19:00",19.8829428321096,"Approved","OW416"
"2023-05-15 20:00",19.8709449000119,"Approved","OW416"
"2023-05-15 21:00",19.8779469679142,"Approved","OW416"
"2023-05-15 22:00",19.8669490358165,"Approved","OW416"
"2023-05-15 23:00",19.8649511037189,"Approved","OW416"
"2023-05-16 00:00",19.8629531716212,"Approved","OW416"
"2023-05-16 01:00",19.8619552395235,"Approved","OW416"
"2023-05-16 02:00",19.8819573074259,"Approved","OW416"
"2023-05-16 03:00",19.8999593753282,"Approved","OW416"
"2023-05-16 04:00",19.8989614432305,"Approved","OW416"
"2023-05-16 05:00",19.8879635111328,"Approved","OW416"
"2023-05-16 06:00",19.8829655790352,"Approved","OW416"
"2023-05-16 07:00",19.8779676469375,"Approved","OW416"
"2023-05-16 08:00",19.8749697148398,"Approved","OW416"
"2023-05-16 09:00",19.8719717827421,"Approved","OW416"
"2023-05-16 10:00",19.8689738506445,"Approved","OW416"
"2023-05-16 11:00",19.8699759185468,"Approved","OW416"
"2023-05-16 12:00",19.8659779864491,"Approved","OW416"
"2023-05-16 13:00",19.8689800543515,"Approved","OW416"
"2023-05-16 14:00",19.8719821222538,"Approved","OW416"
"2023-05-16 15:00",19.8729841901561,"Approved","OW416"
"2023-05-16 16:00",19.8729862580584,"Approved","OW416"
"2023-05-16 17:00",19.8729883259608,"Approved","OW416"
"2023-05-16 18:00",19.8739903938631,"Approved","OW416"
"2023-05-16 19:00",19.9379924617654,"Approved","OW416"
"2023-05-16 20:00",19.8979945296677,"Approved","OW416"
"2023-05-16 21:00",19.9659965975701,"Approved","OW416"
"2023-05-16 22:00",19.9209986654724,"Approved","OW416"
"2023-05-16 23:00",19.9060007333747,"Approved","OW416"
"2023-05-17 00:00",19.8990028012771,"Approved","OW416"
"2023-05-17 01:00",19.9030048691794,"Approved","OW416"
"2023-05-17 02:00",19.9000069370817,"Approved","OW416"
"2023-05-17 03:00",19.902009004984,"Approved","OW416"
"2023-05-17 04:00",19.8990110728864,"Approved","OW416"
"2023-05-17 05:00",19.8920131407887,"Approved","OW416"
"2023-05-17 06:00",19.888015208691,"Approved","OW416"
"2023-05-17 07:00",19.8850172765933,"Approved","OW416"
"2023-05-17 08:00",19.8810193444957,"Approved","OW416"
"2023-05-17 09:00",19.878021412398,"Approved","OW416"
"2023-05-17 10:00",19.8750234803003,"Approved","OW416"
"2023-05-17 11:00",19.8730255482027,"Approved","OW416"
"2023-05-17 12:00",19.871027616105,"Approved","OW416"
"2023-05-17 13:00",19.8710296840073,"Approved","OW416"
"2023-05-17 14:00",19.8720317519096,"Approved","OW416"
"2023-05-17 15:00",19.872033819812,"Approved","OW416"
"2023-05-17 16:00",19.8750358877143,"Approved","OW416"
"2023-05-17 17:00",19.8880379556166,"Approved","OW416"
"2023-05-17 18:00",19.885040023519,"Approved","OW416"
"2023-05-17 19:00",19.8780420914213,"Approved","OW416"
"2023-05-17 20:00",19.8870441593236,"Approved","OW416"
"2023-05-17 21:00",19.8940462272259,"Approved","OW416"
"2023-05-17 22:00",19.8850482951283,"Approved","OW416"
"2023-05-17 23:00",19.8820503630306,"Approved","OW416"
"2023-05-18 00:00",19.8820524309329,"Approved","OW416"
"2023-05-18 01:00",19.8890544988352,"Approved","OW416"
"2023-05-18 02:00",19.8800565667376,"Approved","OW416"
"2023-05-18 03:00",19.8860586346399,"Approved","OW416"
"2023-05-18 04:00",19.8780607025422,"Approved","OW416"
"2023-05-18 05:00",19.8750627704446,"Approved","OW416"
"2023-05-18 06:00",19.8720648383469,"Approved","OW416"
"2023-05-18 07:00",19.8690669062492,"Approved","OW416"
"2023-05-18 08:00",19.8670689741515,"Approved","OW416"
"2023-05-18 09:00",19.8650710420539,"Approved","OW416"
"2023-05-18 10:00",19.8620731099562,"Approved","OW416"
"2023-05-18 11:00",19.8590751778585,"Approved","OW416"
"2023-05-18 12:00",19.8580772457608,"Approved","OW416"
"2023-05-18 13:00",19.8610793136632,"Approved","OW416"
"2023-05-18 14:00",19.8650813815655,"Approved","OW416"
"2023-05-18 15:00",19.8660834494678,"Approved","OW416"
"2023-05-18 16:00",19.9090855173702,"Approved","OW416"
"2023-05-18 17:00",19.9000875852725,"Approved","OW416"
"2023-05-18 18:00",19.8860896531748,"Approved","OW416"
"2023-05-18 19:00",19.8847094337332,"Approved","OW416"
"2023-05-18 20:00",19.8856095606815,"Approved","OW416"
"2023-05-18 21:00",19.884601408707,"Approved","OW416"
"2023-05-18 22:00",19.8865932567325,"Approved","OW416"
"2023-05-18 23:00",19.890585104758,"Approved","OW416"
"2023-05-19 00:00",19.8805769527834,"Approved","OW416"
"2023-05-19 01:00",19.8775688008089,"Approved","OW416"
"2023-05-19 02:00",19.8925606488344,"Approved","OW416"
"2023-05-19 03:00",19.8835524968599,"Approved","OW416"
"2023-05-19 04:00",19.8765443448853,"Approved","OW416"
"2023-05-19 05:00",19.8765361929108,"Approved","OW416"
"2023-05-19 06:00",19.8715280409363,"Approved","OW416"
"2023-05-19 07:00",19.8725198889618,"Approved","OW416"
"2023-05-19 08:00",19.8675117369872,"Approved","OW416"
"2023-05-19 09:00",19.8645035850127,"Approved","OW416"
"2023-05-19 10:00",19.8634954330382,"Approved","OW416"
"2023-05-19 11:00",19.8614872810636,"Approved","OW416"
"2023-05-19 12:00",19.8614791290891,"Approved","OW416"
"2023-05-19 13:00",19.8614709771146,"Approved","OW416"
"2023-05-19 14:00",19.8624628251401,"Approved","OW416"
"2023-05-19 15:00",19.8614546731655,"Approved","OW416"
"2023-05-19 16:00",19.874446521191,"Approved","OW416"
"2023-05-19 17:00",19.8884383692165,"Approved","OW416"
"2023-05-19 18:00",19.879430217242,"Approved","OW416"
"2023-05-19 19:00",19.8794220652674,"Approved","OW416"
"2023-05-19 20:00",19.8764139132929,"Approved","OW416"
"2023-05-19 21:00",19.8754057613184,"Approved","OW416"
"2023-05-19 22:00",19.8723976093439,"Approved","OW416"
"2023-05-19 23:00",19.8733894573693,"Approved","OW416"
"2023-05-20 00:00",19.8693813053948,"Approved","OW416"
"2023-05-20 01:00",19.8713731534203,"Approved","OW416"
"2023-05-20 02:00",19.8743650014458,"Approved","OW416"
"2023-05-20 03:00",19.8703568494712,"Approved","OW416"
"2023-05-20 04:00",19.8673486974967,"Approved","OW416"
"2023-05-20 05:00",19.8673405455222,"Approved","OW416"
"2023-05-20 06:00",19.8653323935477,"Approved","OW416"
"2023-05-20 07:00",19.8623242415731,"Approved","OW416"
"2023-05-20 08:00",19.8603160895986,"Approved","OW416"
"2023-05-20 09:00",19.8583079376241,"Approved","OW416"
"2023-05-20 10:00",19.8562997856495,"Approved","OW416"
"2023-05-20 11:00",19.854291633675,"Approved","OW416"
"2023-05-20 12:00",19.8552834817005,"Approved","OW416"
"2023-05-20 13:00",19.855275329726,"Approved","OW416"
"2023-05-20 14:00",19.8572671777514,"Approved","OW416"
"2023-05-20 15:00",19.8582590257769,"Approved","OW416"
"2023-05-20 16:00",19.8562508738024,"Approved","OW416"
"2023-05-20 17:00",19.8642427218279,"Approved","OW416"
"2023-05-20 18:00",19.8672345698533,"Approved","OW416"
"2023-05-20 19:00",19.8682264178788,"Approved","OW416"
"2023-05-20 20:00",19.8752182659043,"Approved","OW416"
"2023-05-20 21:00",19.8712101139298,"Approved","OW416"
"2023-05-20 22:00",19.8672019619552,"Approved","OW416"
"2023-05-20 23:00",19.8731938099807,"Approved","OW416"
"2023-05-21 00:00",19.8951856580062,"Approved","OW416"
"2023-05-21 01:00",19.8901775060316,"Approved","OW416"
"2023-05-21 02:00",19.8851693540571,"Approved","OW416"
"2023-05-21 03:00",19.8841612020826,"Approved","OW416"
"2023-05-21 04:00",19.8761530501081,"Approved","OW416"
"2023-05-21 05:00",19.8711448981335,"Approved","OW416"
"2023-05-21 06:00",19.869136746159,"Approved","OW416"
"2023-05-21 07:00",19.8661285941845,"Approved","OW416"
"2023-05-21 08:00",19.86312044221,"Approved","OW416"
"2023-05-21 09:00",19.8601122902354,"Approved","OW416"
"2023-05-21 10:00",19.8581041382609,"Approved","OW416"
"2023-05-21 11:00",19.8560959862864,"Approved","OW416"
"2023-05-21 12:00",19.8550878343119,"Approved","OW416"
"2023-05-21 13:00",19.8560796823373,"Approved","OW416"
"2023-05-21 14:00",19.8550715303628,"Approved","OW416"
"2023-05-21 15:00",19.8570633783883,"Approved","OW416"
"2023-05-21 16:00",19.8570552264138,"Approved","OW416"
"2023-05-21 17:00",19.8630470744392,"Approved","OW416"
"2023-05-21 18:00",19.8620389224647,"Approved","OW416"
"2023-05-21 19:00",19.8630307704902,"Approved","OW416"
"2023-05-21 20:00",19.8650226185156,"Approved","OW416"
"2023-05-21 21:00",19.8600144665411,"Approved","OW416"
"2023-05-21 22:00",19.8610063145666,"Approved","OW416"
"2023-05-21 23:00",19.8599981625921,"Approved","OW416"
"2023-05-22 00:00",19.8569900106175,"Approved","OW416"
"2023-05-22 01:00",19.857981858643,"Approved","OW416"
"2023-05-22 02:00",19.8619737066685,"Approved","OW416"
"2023-05-22 03:00",19.852965554694,"Approved","OW416"
"2023-05-22 04:00",19.8539574027194,"Approved","OW416"
"2023-05-22 05:00",19.8499492507449,"Approved","OW416"
"2023-05-22 06:00",19.8479410987704,"Approved","OW416"
"2023-05-22 07:00",19.8459329467959,"Approved","OW416"
"2023-05-22 08:00",19.8439247948213,"Approved","OW416"
"2023-05-22 09:00",19.8419166428468,"Approved","OW416"
"2023-05-22 10:00",19.8409084908723,"Approved","OW416"
"2023-05-22 11:00",19.8389003388978,"Approved","OW416"
"2023-05-22 12:00",19.8358921869232,"Approved","OW416"
"2023-05-22 13:00",19.8338840349487,"Approved","OW416"
"2023-05-22 14:00",19.8318758829742,"Approved","OW416"
"2023-05-22 15:00",19.8328677309997,"Approved","OW416"
"2023-05-22 16:00",19.8328595790251,"Approved","OW416"
"2023-05-22 17:00",19.8328514270506,"Approved","OW416"
"2023-05-22 18:00",19.8338432750761,"Approved","OW416"
"2023-05-22 19:00",19.8428351231015,"Approved","OW416"
"2023-05-22 20:00",19.833826971127,"Approved","OW416"
"2023-05-22 21:00",19.8338188191525,"Approved","OW416"
"2023-05-22 22:00",19.834810667178,"Approved","OW416"
"2023-05-22 23:00",19.8318025152034,"Approved","OW416"
"2023-05-23 00:00",19.8257943632289,"Approved","OW416"
"2023-05-23 01:00",19.8287862112544,"Approved","OW416"
"2023-05-23 02:00",19.8247780592799,"Approved","OW416"
"2023-05-23 03:00",19.8187699073053,"Approved","OW416"
"2023-05-23 04:00",19.8147617553308,"Approved","OW416"
"2023-05-23 05:00",19.8107536033563,"Approved","OW416"
"2023-05-23 06:00",19.8087454513818,"Approved","OW416"
"2023-05-23 07:00",19.8057372994072,"Approved","OW416"
"2023-05-23 08:00",19.8057291474327,"Approved","OW416"
"2023-05-23 09:00",19.8027209954582,"Approved","OW416"
"2023-05-23 10:00",19.8007128434837,"Approved","OW416"
"2023-05-23 11:00",19.7987046915091,"Approved","OW416"
"2023-05-23 12:00",19.7966965395346,"Approved","OW416"
"2023-05-23 13:00",19.7956883875601,"Approved","OW416"
"2023-05-23 14:00",19.7936802355855,"Approved","OW416"
"2023-05-23 15:00",19.794672083611,"Approved","OW416"
"2023-05-23 16:00",19.7976639316365,"Approved","OW416"
"2023-05-23 17:00",19.794655779662,"Approved","OW416"
"2023-05-23 18:00",19.7976476276874,"Approved","OW416"
"2023-05-23 19:00",19.8096394757129,"Approved","OW416"
"2023-05-23 20:00",19.8066313237384,"Approved","OW416"
"2023-05-23 21:00",19.8076231717639,"Approved","OW416"
"2023-05-23 22:00",19.8046150197893,"Approved","OW416"
"2023-05-23 23:00",19.8026068678148,"Approved","OW416"
"2023-05-24 00:00",19.7985987158403,"Approved","OW416"
"2023-05-24 01:00",19.7945905638658,"Approved","OW416"
"2023-05-24 02:00",19.7925824118912,"Approved","OW416"
"2023-05-24 03:00",19.7905742599167,"Approved","OW416"
"2023-05-24 04:00",19.7885661079422,"Approved","OW416"
"2023-05-24 05:00",19.7855579559677,"Approved","OW416"
"2023-05-24 06:00",19.7825498039931,"Approved","OW416"
"2023-05-24 07:00",19.7815416520186,"Approved","OW416"
"2023-05-24 08:00",19.7795335000441,"Approved","OW416"
"2023-05-24 09:00",19.7785253480696,"Approved","OW416"
"2023-05-24 10:00",19.776517196095,"Approved","OW416"
"2023-05-24 11:00",19.7765090441205,"Approved","OW416"
"2023-05-24 12:00",19.775500892146,"Approved","OW416"
"2023-05-24 13:00",19.7744927401714,"Approved","OW416"
"2023-05-24 14:00",19.7794845881969,"Approved","OW416"
"2023-05-24 15:00",19.7944764362224,"Approved","OW416"
"2023-05-24 16:00",19.7794682842479,"Approved","OW416"
"2023-05-24 17:00",19.7794601322733,"Approved","OW416"
"2023-05-24 18:00",19.7864519802988,"Approved","OW416"
"2023-05-24 19:00",19.7974438283243,"Approved","OW416"